Content
SEND FEEDBACK

Daily
Averages
Monthly
Summary
United States of America

BEAVER ISLAND, MICHIGAN


Home > North America > United States > Michigan
Elevation: 627 feet     Latitude: 45 43N     Longitude: 085 31W

WEATHER
 
SELECT A DAY
Number of Records: 332,612;   Date Range: 9/12/01 - 12/24/14
 
SHARE

PRINT THIS DATA

[ ← Previous Day ]
WEATHER ALMANAC - JULY 11, 2014
[ Next Day → ]
[ °C ]   °F
Weather ElementAverageHighLow
Temperature64.7 °F73.9 °F (6:55 pm)49.1 °F (7:15 am)
Dewpoint52.3 °F55.4 °F (11:14 pm)47.8 °F (4:16 am)
Humidity66.2 %100 % (12:15 am)47 % (11:55 am)
Barometer29.72 in30.18 in (8:15 am) (7:00 pm)
Wind Speed8.6 mph15 mph (1:34 pm)
Wind Gust24.2 mph (3:35 am)
Weather ElementAverage
Visibility10 mi
Wind DirectionSSE (172.4 °)

Weather ElementTotal
Precipitation---
Heating Degree Days3.5 (Base 65)
Growing Degree Days11.5 (Base 50)
Averaged from 71 records on July 11, 2014
WEATHER CONDITIONS BREAKOUT
WIND DIRECTION BREAKOUT
WEATHER BY HOUR - JULY 11, 2014
[ °C ]   °F
Local TimeTemperatureDewpointHumidityBarometerVisibilityWind DirectionWind SpeedGust SpeedPrecipitationEventsConditions
12:15 AM49.5 °F48.9 °F98 %30.18 in10.0 miCalmClear
12:35 AM49.5 °F49.1 °F99 %30.17 in10.0 miCalmClear
12:55 AM49.1 °F49.1 °F100 %30.17 in10.0 miCalmClear
1:15 AM49.6 °F49.6 °F100 %30.17 in10.0 miCalmClear
1:35 AM49.3 °F49.3 °F100 %30.17 in10.0 miSE (130°)3.5 mphClear
1:55 AM50.9 °F50.0 °F97 %30.18 in10.0 miCalmClear
2:15 AM51.1 °F50.0 °F96 %30.18 in10.0 miCalmClear
2:35 AM52.2 °F50.0 °F92 %30.18 in10.0 miSE (140°)3.5 mphClear
2:55 AM50.7 °F49.3 °F95 %30.18 in10.0 miSSE (160°)3.5 mphClear
3:15 AM50.4 °F48.7 °F94 %30.18 in10.0 miCalmClear
3:55 AM55.9 °F51.4 °F85 %30.17 in10.0 miSouth (170°)3.5 mphScattered Clouds
4:15 AM56.8 °F52.5 °F85 %30.17 in10.0 miSSE (160°)4.6 mphMostly Cloudy
4:35 AM57.2 °F53.1 °F86 %30.17 in10.0 miCalmMostly Cloudy
4:55 AM58.1 °F54.1 °F87 %30.17 in10.0 miSouth (190°)3.5 mphScattered Clouds
5:15 AM57.6 °F53.6 °F87 %30.17 in10.0 miCalmMostly Cloudy
5:35 AM57.4 °F53.2 °F86 %30.16 in10.0 miSSE (150°)3.5 mphMostly Cloudy
5:55 AM58.1 °F53.1 °F83 %30.16 in10.0 miSSE (160°)3.5 mphScattered Clouds
6:15 AM57.4 °F52.9 °F85 %0.00 in10.0 miCalmScattered Clouds
6:35 AM58.5 °F53.8 °F84 %30.16 in10.0 miSSE (150°)3.5 mphMostly Cloudy
6:55 AM60.3 °F53.1 °F77 %30.16 in10.0 miSouth (190°)4.6 mphOvercast
7:15 AM61.3 °F53.2 °F75 %30.17 in10.0 miSouth (190°)5.8 mphMostly Cloudy
7:35 AM61.0 °F53.6 °F77 %30.17 in10.0 miSouth (180°)4.6 mphScattered Clouds
7:56 AM63.7 °F53.6 °F70 %30.17 in10.0 miSSW (200°)8.1 mphClear
8:15 AM64.4 °F52.7 °F66 %30.17 in10.0 miSSW (200°)8.1 mphScattered Clouds
8:35 AM64.2 °F53.1 °F67 %30.18 in10.0 miSouth (190°)8.1 mphScattered Clouds
8:56 AM66.2 °F52.2 °F61 %30.18 in10.0 miSSW (210°)9.2 mphScattered Clouds
9:15 AM66.4 °F51.6 °F59 %30.18 in10.0 miSSW (200°)10.4 mph16.1 mphMostly Cloudy
9:35 AM67.8 °F51.1 °F55 %30.18 in10.0 miSSW (210°)11.5 mph17.3 mphMostly Cloudy
9:55 AM68.9 °F50.0 °F51 %30.18 in10.0 miSW (220°)10.4 mph18.4 mphMostly Cloudy
10:15 AM68.5 °F50.4 °F52 %30.17 in10.0 miSSW (210°)12.7 mph18.4 mphMostly Cloudy
10:35 AM69.1 °F50.7 °F52 %30.17 in10.0 miSW (220°)10.4 mph17.3 mphMostly Cloudy
10:55 AM68.7 °F50.2 °F52 %30.17 in10.0 miSSW (210°)9.2 mph18.4 mphOvercast
11:15 AM68.4 °F50.7 °F53 %30.16 in10.0 miSSW (210°)13.8 mph17.3 mphMostly Cloudy
11:35 AM68.4 °F50.0 °F52 %30.16 in10.0 miSSW (210°)11.5 mph17.3 mphOvercast
11:56 AM71.4 °F50.7 °F48 %30.15 in10.0 miSSW (210°)11.5 mph19.6 mphScattered Clouds
12:15 PM70.7 °F50.7 °F49 %30.15 in10.0 miSSW (200°)8.1 mph21.9 mphMostly Cloudy
12:35 PM71.6 °F51.3 °F49 %30.15 in10.0 miSSW (200°)11.5 mph20.7 mphOvercast
12:56 PM69.4 °F51.6 °F53 %30.15 in10.0 miSSW (210°)11.5 mph16.1 mphMostly Cloudy
1:15 PM70.7 °F52.7 °F53 %30.15 in10.0 miSSW (200°)12.7 mph19.6 mphMostly Cloudy
1:35 PM72.7 °F53.8 °F51 %30.15 in10.0 miSSW (200°)11.5 mph16.1 mphScattered Clouds
1:56 PM73.9 °F53.6 °F49 %30.15 in10.0 miSSW (210°)12.7 mph24.2 mphScattered Clouds
2:15 PM73.4 °F53.6 °F50 %30.15 in10.0 miSSW (210°)15.0 mph20.7 mphMostly Cloudy
2:35 PM72.0 °F54.5 °F54 %30.15 in10.0 miSW (220°)12.7 mph21.9 mphOvercast
2:56 PM72.0 °F54.7 °F54 %30.15 in10.0 miSSW (210°)12.7 mph23.0 mphMostly Cloudy
3:15 PM70.5 °F53.8 °F55 %30.14 in10.0 miSW (220°)13.8 mph20.7 mphMostly Cloudy
3:35 PM69.8 °F53.8 °F57 %30.14 in10.0 miSW (220°)13.8 mph20.7 mphMostly Cloudy
3:56 PM69.6 °F54.7 °F59 %30.13 in10.0 miSW (220°)10.4 mph18.4 mphScattered Clouds
4:15 PM68.9 °F54.7 °F60 %30.13 in10.0 miSSW (210°)13.8 mph24.2 mphScattered Clouds
4:35 PM69.1 °F54.3 °F59 %30.12 in10.0 miSSW (210°)15.0 mph20.7 mphClear
4:56 PM68.5 °F54.3 °F60 %30.12 in10.0 miSSW (210°)9.2 mph20.7 mphScattered Clouds
5:15 PM68.5 °F54.9 °F62 %30.11 in10.0 miSW (220°)11.5 mphScattered Clouds
5:35 PM69.4 °F55.0 °F60 %30.10 in10.0 miSSW (210°)11.5 mph18.4 mphScattered Clouds
5:56 PM70.7 °F55.4 °F58 %30.10 in10.0 miSSW (210°)11.5 mph23.0 mphMostly Cloudy
6:15 PM70.3 °F55.4 °F59 %30.10 in10.0 miSSW (200°)11.5 mph16.1 mphOvercast
6:35 PM70.7 °F55.4 °F58 %30.09 in10.0 miSSW (210°)10.4 mph17.3 mphMostly Cloudy
6:56 PM70.7 °F55.2 °F58 %30.09 in10.0 miSSW (210°)10.4 mph16.1 mphMostly Cloudy
7:15 PM70.2 °F54.9 °F58 %30.09 in10.0 miSSW (210°)11.5 mph17.3 mphOvercast
7:35 PM70.3 °F54.9 °F58 %30.09 in10.0 miSSW (210°)10.4 mph17.3 mphOvercast
7:56 PM70.0 °F54.7 °F58 %30.09 in10.0 miSSW (210°)10.4 mph18.4 mphOvercast
8:15 PM69.6 °F54.5 °F59 %30.09 in10.0 miSSW (210°)12.7 mph18.4 mphOvercast
8:35 PM68.9 °F54.3 °F60 %30.10 in10.0 miSSW (210°)13.8 mph17.3 mphOvercast
8:56 PM68.0 °F53.8 °F60 %30.10 in10.0 miSW (220°)11.5 mph18.4 mphOvercast
9:15 PM67.5 °F53.1 °F60 %30.10 in10.0 miSSW (210°)12.7 mph18.4 mphOvercast
9:35 PM68.0 °F51.3 °F55 %30.09 in10.0 miSSW (210°)12.7 mph19.6 mphOvercast
9:56 PM68.0 °F49.5 °F51 %30.10 in10.0 miSW (220°)11.5 mph17.3 mphMostly Cloudy
10:15 PM68.5 °F48.7 °F49 %30.10 in10.0 miSW (220°)9.2 mphOvercast
10:35 PM68.7 °F47.8 °F47 %30.09 in10.0 miSSW (210°)13.8 mph21.9 mphOvercast
10:56 PM68.9 °F50.0 °F51 %30.09 in10.0 miSSW (210°)13.8 mph19.6 mphOvercast
11:15 PM68.5 °F50.0 °F52 %30.09 in10.0 miSSW (210°)13.8 mph20.7 mphOvercast
11:35 PM68.9 °F50.9 °F53 %30.09 in10.0 miSSW (200°)11.5 mph18.4 mphOvercast
11:56 PM69.3 °F51.8 °F54 %30.08 in10.0 miSSW (200°)10.4 mph18.4 mphOvercast
Hourly data recorded from KSJX, located miles away from Beaver Island, Michigan







STORIES FROM OUR PARTNERS